Wichita, KS

12:56 PM CDT on August 22, 2017 (GMT -0500)
Wichita Eisenhower National Airport

Weather History for KICT - November, 2012

Change the Weather History Date:

Thursday, November 1, 2012

  Actual Average Record
Temperature  
Mean Temperature 58 °F 52 °F  
Max Temperature 78 °F 64 °F 82 °F (1893)
Min Temperature 37 °F 41 °F 20 °F (1966)
Degree Days  
Heating Degree Days 7 13  
Month to date heating degree days 7 13  
Since 1 July heating degree days 267 299  
Cooling Degree Days 0 0  
Month to date cooling degree days 0 0  
Year to date cooling degree days 2301 1684  
Growing Degree Days 8 (Base 50)    
Moisture  
Dew Point 38 °F    
Average Humidity 55    
Maximum Humidity 85    
Minimum Humidity 24    
Precipitation  
Precipitation 0.00 in 0.05 in 1.86 in (1948)
Month to date precipitation 0.00 0.05  
Year to date precipitation 24.12 30.06  
Snow  
Snow 0.00 in 0.00 in 0.60 in (1951)
Month to date snowfall 0.0 0.0  
Since 1 July snowfall 0.0 0.1  
Since 1 September snowfall 0.0 0.1  
Snow Depth 0.00 in    
Sea Level Pressure  
Sea Level Pressure 29.98 in    
Wind  
Wind Speed 4 mph (SSW)    
Max Wind Speed 10 mph    
Max Gust Speed 15 mph    
Visibility 10 miles    
Events      
T = Trace of Precipitation, MM = Missing Value Source: NWS Daily Summary

Daily Weather History Graph

Daily Weather History Graph

Search for Another Location

Airport or City:

Trip Planner

Search our weather history database for the weather conditions in past years. The results will help you decide how hot, cold, wet, or windy it might be!

Date:

Astronomy

Nov. 01, 2012 Rise Set
Actual Time 7:55 AM CDT 6:30 PM CDT
Civil Twilight 7:28 AM CDT 6:57 PM CDT
Nautical Twilight 6:57 AM CDT 7:28 PM CDT
Astronomical Twilight 6:26 AM CDT 7:59 PM CDT
Moon 8:31 PM CDT (11/1) 10:26 AM CDT (11/1)
Length of Visible Light 11h 29m
Length of Day
10h 35m
Waning Gibbous, 93% of the Moon is Illuminated
Nov 1
Waning Gibbous
Nov 6
Last Quarter
Nov 13
New
Nov 20
First Quarter
Nov 28
Full

Hourly Weather History & Observations

Time (CDT) Temp. Windchill Dew Point Humidity Pressure Visibility Wind Dir Wind Speed Gust Speed Precip Events Conditions
12:53 AM 48.9 °F - 37.0 °F 64% 30.04 in 10.0 mi Calm Calm - N/A   Partly Cloudy
1:53 AM 44.1 °F 42.5 °F 37.0 °F 76% 30.03 in 10.0 mi SSE 3.5 mph - N/A   Partly Cloudy
2:53 AM 46.9 °F - 37.0 °F 68% 30.02 in 10.0 mi Calm Calm - N/A   Clear
3:53 AM 43.0 °F - 36.0 °F 76% 30.01 in 10.0 mi Calm Calm - N/A   Clear
4:53 AM 43.0 °F - 36.0 °F 76% 30.01 in 10.0 mi Calm Calm - N/A   Clear
5:53 AM 39.9 °F - 35.1 °F 83% 30.02 in 10.0 mi Calm Calm - N/A   Clear
6:53 AM 37.0 °F 32.4 °F 33.1 °F 86% 30.02 in 10.0 mi SW 5.8 mph - N/A   Clear
7:53 AM 41.0 °F - 34.0 °F 76% 30.02 in 9.0 mi Calm Calm - N/A   Clear
8:53 AM 45.0 °F - 37.0 °F 74% 30.03 in 8.0 mi Calm Calm - N/A   Clear
9:53 AM 57.9 °F - 37.0 °F 46% 30.03 in 10.0 mi WSW 5.8 mph - N/A   Clear
10:53 AM 64.0 °F - 37.0 °F 37% 30.02 in 10.0 mi Variable 6.9 mph - N/A   Clear
11:53 AM 68.0 °F - 39.0 °F 35% 30.02 in 10.0 mi SSW 6.9 mph - N/A   Clear
12:53 PM 71.1 °F - 39.0 °F 31% 30.00 in 10.0 mi West 5.8 mph - N/A   Clear
1:53 PM 73.9 °F - 39.9 °F 29% 29.96 in 10.0 mi SSW 6.9 mph - N/A   Partly Cloudy
2:53 PM 75.9 °F - 39.0 °F 26% 29.94 in 10.0 mi WSW 5.8 mph - N/A   Partly Cloudy
3:53 PM 77.0 °F - 37.9 °F 24% 29.93 in 10.0 mi Variable 6.9 mph - N/A   Mostly Cloudy
4:53 PM 75.9 °F - 37.9 °F 25% 29.92 in 10.0 mi SSW 3.5 mph - N/A   Mostly Cloudy
5:53 PM 72.0 °F - 39.9 °F 31% 29.92 in 10.0 mi South 5.8 mph - N/A   Mostly Cloudy
6:53 PM 66.9 °F - 39.9 °F 37% 29.93 in 10.0 mi SSE 5.8 mph - N/A   Scattered Clouds
7:53 PM 62.1 °F - 39.9 °F 44% 29.93 in 10.0 mi SE 4.6 mph - N/A   Scattered Clouds
8:53 PM 54.0 °F - 39.9 °F 59% 29.93 in 10.0 mi South 3.5 mph - N/A   Scattered Clouds
9:53 PM 55.9 °F - 39.9 °F 55% 29.93 in 10.0 mi Calm Calm - N/A   Mostly Cloudy
10:53 PM 57.0 °F - 39.9 °F 53% 29.92 in 10.0 mi Calm Calm - N/A   Mostly Cloudy
11:53 PM 54.0 °F - 42.1 °F 64% 29.91 in 9.0 mi SSE 4.6 mph - N/A   Mostly Cloudy